Flag for Poland

Past Weather in Lublin, Poland — Yesterday and Last 2 Weeks

Now
51 °F

Overcast.


Feels Like: 51 °F
Forecast: 71 / 52 °F
Wind: 1 mph from Southwest

Location: Lublin Radawiec

Current Time: Jul 8, 2020 at 7:46:49 am

Latest Report: Jul 8, 2020 at 6:00 am


Visibility: 19 mi

Pressure: 30.02 "Hg

Humidity: 88%

Dew Point: 48 °F

Location of LublinLocation

Past Weather in Lublin — Graph

°F

Lublin Temperature Yesterday

Maximum temperature yesterday: 65 °F (at 4:00 pm)
Minimum temperature yesterday: 54 °F (at 10:00 pm)
Average temperature yesterday: 60 °F

High & Low Weather Summary for the Past Weeks

 TemperatureHumidityPressure
High83 °F (Jul 6, 6:00 pm)100% (Jun 24, 8:00 am)30.26 "Hg (Jun 24, 8:00 am)
Low47 °F (Jul 8, 5:00 am)45% (Jun 30, 5:00 pm)29.67 "Hg (Jul 6, 6:00 pm)
Average67 °F79%29.95 "Hg
* Reported Jun 23 6:00 am — Jul 8 6:00 am, Lublin. Weather by CustomWeather, © 2020

Note: Actual official high and low records may vary slightly from our data, if they occured in-between our weather recording intervals... More about our weather records

Lublin Weather History for the Previous 24 Hours

Scroll right to see more
 ConditionsComfort  
Time TempWeatherWind HumidityBarometerVisibility
6:00 am
Wed, Jul 8
51 °FOvercast.1 mph88%30.02 "Hg19 mi
5:00 am47 °FScattered clouds.1 mph90%30.02 "Hg17 mi
4:00 am48 °FPassing clouds.1 mph90%30.03 "Hg18 mi
3:00 am50 °FPassing clouds.2 mph85%30.02 "Hg22 mi
2:00 am51 °FClear.3 mph81%30.02 "Hg25 mi
1:00 am52 °FClear.3 mph81%30.03 "Hg28 mi
12:00 am53 °FClear.3 mph78%30.03 "Hg28 mi
11:00 pm
Tue, Jul 7
54 °FClear.3 mph75%30.02 "Hg22 mi
10:00 pm54 °FPassing clouds.2 mph81%30.02 "Hg25 mi
9:00 pm55 °FPassing clouds.2 mph76%30.01 "Hg28 mi
8:00 pm59 °FPassing clouds.3 mph63%30.00 "Hg28 mi
7:00 pm62 °FPassing clouds.7 mph54%29.98 "Hg22 mi
6:00 pm63 °FScattered clouds.7 mph55%29.97 "Hg25 mi
5:00 pm65 °FPartly sunny.8 mph54%29.96 "Hg16 mi
4:00 pm65 °FPartly sunny.7 mph56%29.96 "Hg22 mi
3:00 pm65 °FOvercast.7 mph55%29.96 "Hg22 mi
2:00 pm64 °FOvercast.7 mph58%29.96 "Hg22 mi
1:00 pm64 °FOvercast.7 mph57%29.97 "Hg22 mi
12:00 pm62 °FOvercast.5 mph67%29.97 "Hg16 mi
11:00 am59 °FOvercast.3 mph78%29.97 "Hg22 mi
10:00 am57 °FOvercast.7 mph80%29.96 "Hg25 mi
9:00 am57 °FOvercast.6 mph80%29.95 "Hg22 mi
8:00 am57 °FOvercast.6 mph81%29.95 "Hg16 mi
7:00 am57 °FOvercast.5 mph84%29.93 "Hg16 mi
Weather by CustomWeather, © 2020

See weather overview